User: anonymous   Login
Location: Camp Creek
(33.9000°N, 111.8167°W)
Time: 19:49:29
(UTC-07:00)
Language:

Cosmos 2322 Rocket - Orbit

View from above orbital plane
View from above orbital plane
View from above satellite
View from above satellite

Ground track
Ground track

The orbit data is extracted from the following two-line orbital elements,

1 23705U 95058B   15114.88065868  .00000147  00000-0  10039-3 0  9993
2 23705 071.0223 234.4885 0010808 047.4481 312.7552 14.15056269  6238
Epoch (UTC): 24 April 2015 21:08:08
Eccentricity: 0.0010808
inclination: 71.0223°
perigee height: 834 km
apogee height: 850 km
right ascension of ascending node: 234.4885°
argument of perigee: 47.4481°
revolutions per day: 14.15056269
mean anomaly at epoch: 312.7552°
orbit number at epoch: 623

The dashed part of the orbit path shows where the satellite is in the earth's shadow,  

DLR